Location: Castelbiague
(43.0361°N, 0.9246°E)
Time: 03:02:15
(UTC+00:00)

Okean 1 Rocket - Visible Passes

Search period start: 23 October 2021 00:00
Search period end: 02 November 2021 00:00
Orbit: 606 x 635 km, 82.5° (Epoch: 22 October)

Date Brightness Start Highest point End Pass type
(mag) Time Alt. Az. Time Alt. Az. Time Alt. Az.
23 Oct 5.4 03:13:08 10° NNE 03:16:38 22° ENE 03:20:06 10° ESE visible
23 Oct 3.6 04:50:35 10° NNW 04:54:35 34° W 04:58:36 10° SSW visible
23 Oct 3.9 17:22:37 10° SSW 17:26:51 55° W 17:31:09 10° N visible
24 Oct 4.8 03:36:20 27° SE 03:36:20 27° SE 03:38:45 10° SSE visible
24 Oct 4.7 05:13:48 16° WSW 05:13:48 16° WSW 05:15:16 10° SW visible
24 Oct 5.2 17:40:56 10° SW 17:44:44 29° WNW 17:48:35 10° NNW visible
25 Oct 6.0 17:59:54 10° WSW 18:02:43 17° WNW 18:05:35 10° NNW visible
29 Oct 5.9 17:33:21 10° WSW 17:35:58 16° WNW 17:38:37 10° NNW visible
